Home   Weather   Costa Mesa   Past weeks

Flag for USA Past Weather in Costa Mesa, California, USA — Yesterday and Last 2 Weeks

Now
54 °F

Mostly cloudy.


Feels Like: 52 °F
Forecast: 53 / 59 °F
Wind: 7 mph from Southeast

Location: John Wayne Airport-Orange County Airport

Current Time: Feb 20, 2017 at 7:36:58 am

Latest Report: Feb 20, 2017 at 6:53 am


Visibility: 9 mi

Pressure: 30.23 "Hg

Humidity: 90%

Dew Point: 51 °F

Location of Costa MesaLocation

Past Weather in Costa Mesa — Graph

°F

Costa Mesa Temperature Yesterday

Maximum temperature yesterday: 61 °F (at 11:53 am)
Minimum temperature yesterday: 55 °F (at 2:53 am)
Average temperature yesterday: 57 °F

High & Low Weather Summary for the Past Weeks

 TemperatureHumidityPressure
High75 °F (Feb 12, 2:53 pm)100% (Feb 6, 5:00 am)30.21 "Hg (Feb 6, 5:00 am)
Low51 °F (Feb 5, 5:53 am)30% (Feb 12, 2:53 pm)29.47 "Hg (Feb 17, 3:53 pm)
Average58 °F87%30.02 "Hg
* Reported Feb 5 5:53 am — Feb 20 5:53 am, Costa Mesa, Weather by CustomWeather, © 2017

Note: Actual official high and low records may vary slightly from our data, if they occured in-between our weather recording intervals... More about our weather records

Advertising

Costa Mesa Weather History for the Previous 24 Hours

Scroll right to see more
 ConditionsComfort  
Time TempWeatherWind HumidityBarometerVisibility
5:53 am
Mon, Feb 20
53 °FMostly cloudy.5 mph93%30.21 "Hg9 mi
5:30 am53 °FLight rain. Fog.6 mph93%30.21 "Hg4 mi
5:07 am53 °FLight rain. Fog.6 mph93%30.21 "Hg2 mi
4:53 am54 °FFog.8 mph90%30.20 "Hg6 mi
4:34 am54 °FOvercast.7 mph86%30.20 "Hg10 mi
4:12 am54 °FMostly cloudy.9 mph86%30.19 "Hg10 mi
3:53 am54 °FMostly cloudy.6 mph90%30.18 "Hg8 mi
3:28 am54 °FFog.6 mph90%30.18 "Hg4 mi
2:53 am54 °FMostly cloudy.7 mph86%30.18 "Hg10 mi
2:32 am54 °FMostly cloudy.6 mph90%30.18 "Hg10 mi
1:53 am56 °FMostly cloudy.No wind81%30.19 "Hg10 mi
12:53 am56 °FOvercast.6 mph77%30.18 "Hg10 mi
11:53 pm
Sun, Feb 19
56 °FOvercast.5 mph77%30.17 "Hg10 mi
10:53 pm56 °FOvercast.No wind75%30.17 "Hg8 mi
10:34 pm56 °FMostly cloudy.5 mph75%30.17 "Hg10 mi
9:53 pm56 °FMostly cloudy.6 mph72%30.15 "Hg10 mi
9:09 pm56 °FMostly cloudy.7 mph72%30.15 "Hg10 mi
8:53 pm56 °FOvercast.6 mph72%30.13 "Hg10 mi
7:53 pm57 °FLight rain. Partly cloudy.6 mph69%30.11 "Hg10 mi
7:27 pm57 °FPartly cloudy.7 mph69%30.10 "Hg10 mi
7:08 pm57 °FMostly cloudy.6 mph69%30.09 "Hg10 mi
6:53 pm57 °FPassing clouds.8 mph69%30.08 "Hg10 mi
5:53 pm57 °FPassing clouds.8 mph72%30.05 "Hg10 mi
4:53 pm58 °FPartly sunny.9 mph72%30.03 "Hg10 mi
3:53 pm58 °FBroken clouds.12 mph75%30.01 "Hg10 mi
2:53 pm60 °FPartly sunny.12 mph65%29.99 "Hg10 mi
2:24 pm60 °FOvercast.8 mph65%29.99 "Hg10 mi
1:53 pm59 °FMostly cloudy.9 mph69%29.99 "Hg10 mi
12:53 pm60 °FPartly sunny.12 mph69%29.98 "Hg10 mi
11:53 am61 °FPartly sunny.13 mph67%29.97 "Hg10 mi
10:53 am59 °FMore clouds than sun.12 mph75%29.97 "Hg10 mi
10:04 am59 °FCloudy.8 mph75%29.96 "Hg10 mi
9:22 am57 °FLight rain. Mostly cloudy.No wind83%29.94 "Hg8 mi
9:01 am57 °FCloudy.3 mph83%29.93 "Hg10 mi
8:05 am56 °FLight rain. Fog.8 mph87%29.91 "Hg6 mi
7:53 am56 °FMore clouds than sun.3 mph84%29.89 "Hg10 mi
7:36 am56 °FMostly cloudy.No wind84%29.89 "Hg9 mi
Weather by CustomWeather, © 2017

See weather overviewHow to use our weather pages